Starlink 35126

operational
NORAD ID: 65503 Int'l Des: 2025-198 Owner: SPXS Country: US Constellation: starlink
LEOCIRCULAR

About Starlink 35126

Description loading...

Live Position

Loading 3D Globe...

Upcoming Passes

Altitude History

Altitude vs Time

uPlot chart will show altitude changes over time

Two-Line Element Set

1 65503U 25198M 26061.40665281 .00003944 00000-0 14514-3 0 9999
2 65503 53.1593 304.9245 0001144 93.3457 266.7675 15.30214766 27503
Epoch: Mar 2, 2026 • Age: 29 hours

Current Status

Altitude 475.7 km
Velocity 7.63 km/s
Sub-Earth Point 25.60°N, 138.93°W
Launch Date Sep 5, 2025
Age 0.4 years
Type internet

Technical Details

Classification Payload
Mass 575.00 kg
Dry Mass 530.00 kg
Total Mass 575.00 kg
Length 0.30 m
Diameter 4.10 m
Span 29.00 m
Shape Box + pan
Manufacturer SPXS
Bus Type Starlink V2MO
Phase Status In Orbit
Owner/State SPXS/US

Large Constellations

Loading constellations...